CAPE
0 0 0 0 0 1 164 1008 1529 1743 1682 1599 1498 1532 1585 1626 1486 1311 1108 879 777 521 352 245 116 28 0 0 0 0 0 0
0 0 0 0 0 0 0 229 976 1464 1670 1633 1544 1547 1346 1517 1596 1677 1352 950 711 525 339 147 69 52 0 0 0 0 0 0
0 0 0 0 0 0 0 6 526 1213 1494 1552 1507 1439 1355 1609 1518 1437 1444 1120 681 508 281 107 62 74 2 0 0 0 0 0
0 0 0 0 0 0 0 0 264 954 1401 1491 1431 1397 1358 1492 1462 1512 1512 1299 731 531 288 82 50 29 2 0 0 0 0 0
0 0 0 0 0 0 0 0 30 948 1407 1328 1273 1180 1220 1398 1491 1458 1392 1228 911 611 247 119 61 12 2 0 0 0 0 0
0 0 0 0 0 0 0 0 40 1025 1485 1333 1282 1128 1068 1217 1259 1129 1266 1201 850 603 277 122 53 24 1 1 0 0 0 0
0 0 0 0 0 0 0 0 217 1351 1621 1499 1334 1266 1138 1238 1211 1235 1106 1217 813 582 336 91 82 53 5 1 0 0 0 0
0 0 0 0 0 0 0 29 492 1378 1659 1642 1539 1407 1282 1262 1314 1031 1198 1204 1003 560 385 122 92 70 22 1 2 0 0 0
0 0 0 0 0 0 0 453 762 1512 1767 1773 1705 1575 1455 1215 1305 1193 1251 1290 1008 640 425 139 107 54 27 2 2 1 0 0
0 0 0 0 0 0 0 0 0 172 1131 1906 1833 1663 1539 1357 1359 1387 1286 1212 1170 960 432 182 76 25 14 3 2 2 1 0
0 0 0 0 0 0 0 0 0 1 3 43 409 1062 978 933 1129 1195 894 993 1106 1081 680 216 47 26 3 4 3 2 2 0
1 0 0 0 0 0 0 0 0 0 0 2 3 2 3 3 71 84 169 301 678 470 122 111 97 37 2 2 5 2 2 2
2 2 0 0 0 0 0 0 0 0 0 0 0 0 4 6 5 3 1 0 0 1 96 343 267 97 28 2 2 1 2 2
3 2 3 3 0 0 0 0 0 0 0 0 0 0 0 0 0 0 0 0 0 0 2 0 1 0 1 2 6 1 1 1
1 3 3 4 3 1 0 0 0 0 0 0 0 0 0 0 0 0 0 0 0 0 0 0 0 1 1 0 4 4 1 1
0 0 0 0 0 0 0 0 0 0 0 0 0 0 0 0 0 0 0 0 0 0 0 0 0 0 0 0 0 1 12 3
0 0 0 1 0 0 0 0 0 0 0 0 0 0 0 0 0 0 0 0 0 0 0 0 0 0 0 0 0 0 1 0
0 0 0 0 0 0 0 0 0 0 0 0 0 0 0 0 0 0 0 0 0 0 0 0 0 0 0 0 0 0 0 0
0 0 0 0 0 0 0 0 0 0 0 0 0 0 0 0 0 0 0 0 0 0 0 0 0 0 0 0 0 0 0 0
CIN
-0 -0 -0 -0 -0 -47 -164 -183 -203 -179 -185 -142 -134 -126 -119 -99 -133 -166 -183 -210 -205 -217 -277 -308 -306 -300 -0 -0 -0 -0 -0 -0
-0 -0 -0 -0 -0 -0 -0 -164 -194 -169 -104 -96 -71 -88 -100 -91 -90 -109 -127 -156 -214 -256 -280 -326 -329 -303 -0 -0 -0 -0 -0 -0
-0 -0 -0 -0 -0 -0 -0 -90 -216 -182 -137 -164 -101 -107 -118 -116 -144 -127 -96 -108 -205 -275 -311 -354 -374 -305 -0 -0 -0 -0 -0 -0
-0 -0 -0 -0 -0 -0 -0 -0 -305 -212 -186 -155 -90 -53 -59 -54 -71 -76 -84 -111 -212 -253 -333 -418 -410 -389 -0 -0 -0 -0 -0 -0
-0 -0 -0 -0 -0 -0 -0 -0 -212 -236 -176 -189 -126 -105 -62 -63 -77 -100 -106 -115 -168 -223 -313 -400 -447 -451 -0 -0 -0 -0 -0 -0
-0 -0 -0 -0 -0 -0 -0 -0 -400 -229 -171 -221 -155 -119 -119 -121 -123 -138 -110 -107 -152 -227 -294 -387 -435 -442 -0 -0 -0 -0 -0 -0
-0 -0 -0 -0 -0 -0 -0 -0 -313 -161 -155 -184 -157 -158 -140 -102 -114 -100 -102 -84 -110 -173 -241 -375 -428 -443 -330 -0 -0 -0 -0 -0
-0 -0 -0 -0 -0 -0 -0 -289 -244 -121 -137 -146 -124 -116 -108 -111 -117 -125 -83 -75 -54 -162 -197 -331 -392 -440 -485 -0 -0 -0 -0 -0
-0 -0 -0 -0 -0 -0 -0 -238 -181 -102 -71 -106 -101 -91 -77 -99 -81 -93 -73 -75 -79 -139 -159 -261 -320 -379 -422 -274 -0 -0 -0 -0
-0 -0 -0 -0 -0 -0 -0 -0 -0 -323 -131 -36 -43 -38 -64 -69 -62 -33 -52 -39 -29 -54 -105 -142 -246 -290 -327 -372 -0 -0 -0 -0
-0 -0 -0 -0 -0 -0 -0 -0 -0 -0 -0 -191 -222 -64 -73 -66 -61 -51 -66 -57 -69 -22 -15 -41 -134 -164 -154 -308 -347 -0 -0 -0
-0 -0 -0 -0 -0 -0 -0 -0 -0 -0 -0 -0 -0 -0 -0 -111 -269 -248 -178 -130 -57 -54 -106 -83 -8 -55 -0 -0 -249 -253 -0 -0
-0 -0 -0 -0 -0 -0 -0 -0 -0 -0 -0 -0 -0 -0 -0 -0 -0 -0 -0 -0 -0 -6 -49 -12 -9 -31 -92 -70 -0 -0 -0 -0
-0 -0 -0 -0 -0 -0 -0 -0 -0 -0 -0 -0 -0 -0 -0 -0 -0 -0 -0 -0 -0 -0 -0 -0 -0 -0 -70 -0 -76 -5 -4 -3
-0 -0 -0 -0 -0 -0 -0 -0 -0 -0 -0 -0 -0 -0 -0 -0 -0 -0 -0 -0 -0 -0 -0 -0 -0 -0 -0 -0 -49 -4 -0 -47
-0 -0 -0 -0 -0 -0 -0 -0 -0 -0 -0 -0 -0 -0 -0 -0 -0 -0 -0 -0 -0 -0 -0 -0 -0 -0 -0 -0 -0 -0 -2 -41
-0 -0 -0 -0 -0 -0 -0 -0 -0 -0 -0 -0 -0 -0 -0 -0 -0 -0 -0 -0 -0 -0 -0 -0 -0 -0 -0 -0 -0 -0 -0 -0
-0 -0 -0 -0 -0 -0 -0 -0 -0 -0 -0 -0 -0 -0 -0 -0 -0 -0 -0 -0 -0 -0 -0 -0 -0 -0 -0 -0 -0 -0 -0 -0
-0 -0 -0 -0 -0 -0 -0 -0 -0 -0 -0 -0 -0 -0 -0 -0 -0 -0 -0 -0 -0 -0 -0 -0 -0 -0 -0 -0 -0 -0 -0 -0
Wind_Speed
35 33 31 32 33 32 30 29 28 26 25 29 29 30 31 30 33 33 32 31 29 26 23 21 18 17 18 19 17 19 18 14
41 37 33 28 30 29 30 31 28 28 27 28 29 29 30 32 33 34 33 33 30 29 26 22 20 20 19 21 19 16 18 15
42 41 39 37 34 34 36 36 32 29 28 27 30 29 30 30 31 34 35 33 31 30 29 25 22 20 19 21 20 21 21 18
54 51 46 46 44 43 41 34 31 30 28 27 30 31 32 33 34 33 37 34 32 32 30 26 24 21 22 22 22 22 23 23
55 47 50 44 43 42 37 32 29 30 29 27 28 30 29 29 30 29 32 36 35 33 31 28 26 24 22 23 24 25 25 25
54 49 46 42 40 40 37 32 28 29 28 27 26 30 29 28 30 30 31 34 36 33 32 30 28 26 25 24 24 26 26 26
42 39 34 36 37 37 33 28 26 29 27 27 26 28 28 28 29 30 31 33 36 35 34 33 30 28 26 25 26 27 27 28
29 31 31 31 31 31 29 27 26 25 26 25 27 28 28 27 27 30 30 31 34 35 34 34 33 30 29 27 27 27 27 28
19 21 23 25 24 25 25 25 25 25 25 25 27 29 29 31 30 28 29 30 33 34 36 35 34 34 32 31 30 30 29 29
15 15 17 16 17 18 19 21 23 25 26 28 27 29 30 29 29 28 28 28 29 29 33 34 36 34 35 33 33 32 31 31
12 11 11 11 9 10 11 15 19 22 23 25 27 27 30 31 30 32 29 25 23 23 26 31 33 35 36 35 36 35 35 34
10 8 10 10 8 8 7 7 8 13 18 22 22 22 22 25 26 26 25 24 24 24 25 26 37 35 32 36 37 37 37 36
11 8 8 9 9 9 9 9 8 8 8 9 12 16 17 18 20 20 20 20 21 23 22 19 19 21 27 32 41 37 36 37
14 13 11 9 9 11 10 10 10 9 8 8 8 9 12 14 15 17 17 14 16 18 22 24 24 25 22 19 34 30 31 44
12 14 15 13 11 14 13 12 13 13 12 11 11 11 11 14 15 16 18 17 18 19 19 19 20 24 28 32 28 30 29 39
16 15 17 14 13 13 14 15 15 15 13 14 15 15 13 13 16 18 17 16 16 18 18 18 19 20 23 25 24 25 26 23
17 20 12 14 15 13 16 15 16 16 16 18 20 20 19 19 18 20 19 20 17 19 18 18 21 21 23 25 27 25 26 26
19 18 19 20 20 17 16 18 17 17 16 17 18 19 22 24 26 25 23 23 21 22 22 23 25 24 24 24 25 26 26 27
22 24 25 24 23 23 22 21 20 20 20 22 23 24 24 25 25 26 27 28 27 27 25 24 24 25 26 27 27 27 27 29
Wind_Direction
271 268 262 258 256 255 253 252 249 245 246 251 246 242 240 239 238 236 232 232 231 232 234 230 219 215 229 234 223 240 241 237
271 270 268 261 259 255 254 255 248 247 245 243 243 236 236 238 239 237 235 233 231 232 235 231 223 217 220 226 229 221 239 235
269 269 267 265 262 261 260 257 250 241 236 237 245 236 233 233 236 239 237 234 231 230 234 232 224 223 219 218 218 232 245 223
269 271 267 266 264 264 263 255 245 235 229 238 244 242 241 239 237 237 236 234 231 230 231 231 227 228 224 223 217 218 235 234
266 271 265 265 264 263 257 254 244 231 226 232 230 230 231 233 230 231 236 235 235 232 233 231 228 233 230 223 226 230 233 230
263 266 268 266 261 257 256 255 243 232 224 228 225 229 233 233 233 231 233 235 236 232 233 232 233 235 236 230 227 227 228 239
269 267 270 267 262 255 252 248 240 233 224 227 222 221 230 233 234 234 236 236 237 233 234 235 236 237 236 232 233 234 233 240
275 268 269 269 263 256 248 243 240 232 225 224 228 231 233 234 235 235 236 235 237 234 235 236 239 237 238 236 235 235 233 233
287 276 277 275 268 259 250 246 243 237 236 231 233 235 239 241 242 240 238 236 237 238 239 242 243 243 240 239 242 242 241 242
301 294 293 290 279 268 257 251 250 249 245 242 241 241 240 239 243 238 239 238 238 241 241 244 247 245 243 245 245 245 244 243
327 316 321 323 316 290 275 267 259 256 253 250 249 248 248 250 248 247 245 236 231 233 241 249 251 250 248 247 249 249 248 247
340 333 351 351 346 338 337 313 292 277 264 260 256 256 256 252 251 252 249 246 244 241 249 254 250 247 246 249 249 250 249 250
348 344 346 357 358 1 358 343 333 326 312 291 267 262 263 260 257 260 255 257 264 255 259 253 244 247 247 246 250 251 249 251
9 9 349 337 343 348 347 345 341 339 342 329 312 289 279 273 268 273 274 270 272 275 273 268 270 269 266 258 253 261 250 257
0 15 12 2 348 346 331 334 332 331 335 331 329 310 298 291 286 283 284 284 278 277 279 286 282 280 279 272 271 264 270 254
9 5 1 355 357 335 339 332 317 317 322 318 310 309 310 303 295 290 288 290 289 284 285 285 286 284 290 289 283 283 261 261
356 9 345 343 349 339 344 319 315 316 312 305 301 303 302 298 295 300 298 287 286 293 285 289 286 293 291 290 290 284 282 276
356 352 355 351 344 333 333 339 321 310 322 318 308 303 296 294 291 289 290 298 294 293 295 292 289 290 291 290 288 288 287 284
350 348 351 335 336 331 328 323 311 319 317 305 306 301 298 296 295 292 290 292 293 291 289 291 291 291 290 288 289 287 286 287